Latest Coastal Weather Observations for Wynyard

IDV60701

Issued at 9:31 am EST Thursday 2 July 2015 (issued every 10 minutes, with the page automatically refreshed every 10 minutes)

About coastal observations | Map of coastal stations | Coastal observations for VIC | Marine services | Other Formats
Station Details ID: 091107 Name: WYNYARD AIRPORT Lat: -41.00 Lon: 145.73 Height: 12.0 m
Data from the previous 72 hours. | See also: Recent months at Wynyard
Date/Time
EST
Temp

°C
Wind Pressure Rain
since 9am
mm
Weather Cloud Vis
km
Sea
Height
m
Swell
Dir
 
Speed
knots
Gust
knots
hPa Trend Height
m
Period
s
Dir
02/09:30am 6.5 WSW 6 11 1015.7 - 0.0 - - 10 - - - -
02/09:00am 4.0 WSW 5 7 1015.3 - 4.4 - Mostly clear 10 - - - -
02/08:30am 4.2 WSW 7 9 1014.8 - 4.4 - Partly cloudy 10 - - - -
02/08:00am 4.5 WSW 8 11 1014.8 - 4.4 - Partly cloudy 10 - - - -
02/07:30am 4.5 WSW 5 9 1014.4 - 4.4 - Partly cloudy 10 - - - -
02/07:00am 4.9 SW 8 12 1013.8 - 4.2 - Partly cloudy 10 - - - -
02/06:30am 5.7 SW 14 21 1013.4 - 3.8 - Partly cloudy 6 - - - -
02/06:27am 5.8 SW 15 21 1013.4 - 3.2 - Partly cloudy 8 - - - -
02/06:00am 5.2 WSW 8 11 1012.8 - 3.0 - Cloudy 10 - - - -
02/05:30am 5.0 WSW 8 10 1012.1 - 3.0 - Partly cloudy 10 - - - -
02/05:00am 5.5 SW 5 7 1011.9 - 3.0 - Partly cloudy 10 - - - -
02/04:30am 4.9 WSW 8 10 1011.9 - 3.0 - Partly cloudy 10 - - - -
02/04:00am 5.0 WSW 7 9 1011.3 - 3.0 - Partly cloudy 10 - - - -
02/03:30am 6.1 WSW 10 14 1011.6 - 3.0 - Partly cloudy 10 - - - -
02/03:00am 5.6 W 9 10 1011.6 - 3.0 - Partly cloudy 10 - - - -
02/02:30am 5.9 WSW 8 10 1011.5 - 3.0 - - 10 - - - -
02/02:00am 6.6 WSW 9 10 1011.2 - 3.0 - Partly cloudy 10 - - - -
02/01:30am 7.7 WSW 13 17 1011.3 - 3.0 - Partly cloudy 10 - - - -
02/01:00am 7.7 WSW 12 16 1011.1 - 2.8 - Partly cloudy 10 - - - -
02/12:30am 8.1 WSW 14 20 1011.1 - 2.8 - Partly cloudy 10 - - - -
02/12:00am 8.5 WSW 14 24 1010.7 - 2.8 - - 10 - - - -
 
Date/Time
EST
Temp

°C
Wind Pressure Rain
since 9am
mm
Weather Cloud Vis
km
Sea
Height
m
Swell
Dir
 
Speed
knots
Gust
knots
hPa Trend Height
m
Period
s
Dir
01/11:30pm 8.5 WSW 11 15 1010.6 - 2.8 - - 10 - - - -
01/11:00pm 9.0 WSW 13 18 1010.8 - 2.8 - - 10 - - - -
01/10:30pm 9.5 WSW 12 16 1010.7 - 2.8 - Partly cloudy 10 - - - -
01/10:00pm 9.4 W 12 15 1010.7 - 2.8 - Partly cloudy 10 - - - -
01/09:30pm 9.5 WSW 13 18 1011.0 - 2.6 - Partly cloudy 10 - - - -
01/09:00pm 10.0 WSW 20 27 1011.1 - 2.6 Rain Mostly cloudy 8 - - - -
01/08:41pm 11.5 W 23 31 1011.3 - 1.8 - Partly cloudy 2 - - - -
01/08:30pm 11.9 WNW 24 31 1010.4 - 0.2 - Partly cloudy 6 - - - -
01/08:19pm 11.8 WNW 22 35 1010.3 - 0.2 - Partly cloudy 5 - - - -
01/08:00pm 11.8 WNW 22 32 1010.8 - 0.2 - Partly cloudy 7 - - - -
01/07:41pm 11.8 WNW 17 27 1011.3 - 0.2 - Partly cloudy 10 - - - -
01/07:30pm 11.8 WNW 15 23 1011.8 - 0.2 - Partly cloudy 10 - - - -
01/07:00pm 11.4 WNW 13 17 1012.6 - 0.2 - Partly cloudy 10 - - - -
01/06:30pm 11.4 WNW 13 19 1013.2 - 0.2 - Partly cloudy 10 - - - -
01/06:00pm 11.1 WNW 14 19 1013.8 - 0.0 - Cloudy 10 - - - -
01/05:30pm 11.4 WNW 13 19 1014.2 - 0.0 - Partly cloudy 10 - - - -
01/05:00pm 11.6 WNW 14 19 1014.7 - 0.0 - Partly cloudy 10 - - - -
01/04:30pm 12.2 WNW 13 17 1014.8 - 0.0 - Partly cloudy 10 - - - -
01/04:00pm 12.5 W 15 24 1015.3 - 0.0 - Partly cloudy 10 - - - -
01/03:30pm 12.4 W 14 19 1015.9 - 0.0 - Partly cloudy 10 - - - -
01/03:00pm 12.6 W 14 19 1016.2 - 0.0 - Mostly clear 10 - - - -
01/02:30pm 13.1 WNW 18 22 1016.4 - 0.0 - Partly cloudy 10 - - - -
01/02:00pm 12.9 WNW 19 29 1016.9 - 0.0 - Partly cloudy 10 - - - -
01/01:56pm 13.1 NW 15 28 1016.9 - 0.0 - Partly cloudy 10 - - - -
01/01:30pm 13.5 WNW 15 20 1017.6 - 0.0 - Cloudy 10 - - - -
01/01:00pm 12.9 WNW 19 27 1018.4 - 0.0 - Cloudy 10 - - - -
01/12:53pm 13.2 WNW 17 27 1018.4 - 0.0 - Cloudy 10 - - - -
01/12:30pm 13.3 WNW 14 22 1018.9 - 0.0 - Partly cloudy 10 - - - -
01/12:00pm 13.1 WNW 13 17 1019.6 - 0.0 - Mostly cloudy 10 - - - -
01/11:30am 12.8 WNW 13 17 1020.5 - 0.0 - Partly cloudy 10 - - - -
01/11:00am 12.3 WNW 12 18 1021.2 - 0.0 - - 10 - - - -
01/10:30am 11.4 W 4 5 1021.6 - 0.0 - - 10 - - - -
01/10:00am 9.9 WSW 2 3 1022.0 - 0.0 - - 10 - - - -
01/09:30am 8.8 WSW 3 4 1022.3 - 0.0 - Partly cloudy 10 - - - -
01/09:00am 6.6 W 5 6 1022.6 - 0.2 - Partly cloudy 10 - - - -
01/08:30am 6.1 WSW 4 4 1022.7 - 0.2 - Cloudy 10 - - - -
01/08:00am 5.2 SW 3 4 1022.7 - 0.2 - Partly cloudy 10 - - - -
01/07:48am 5.5 SW 3 5 1022.8 - 0.2 - Partly cloudy 10 - - - -
01/07:30am 5.9 WNW 6 7 1023.0 - 0.2 - Partly cloudy 5 - - - -
01/07:28am 5.8 WNW 5 7 1023.1 - 0.2 - Partly cloudy 5 - - - -
01/07:00am 4.5 W 4 5 1023.0 - 0.2 - Cloudy 10 - - - -
01/06:56am 4.2 WSW 4 5 1023.1 - 0.2 - Cloudy 10 - - - -
01/06:30am 3.9 SW 4 5 1023.1 - 0.2 - Partly cloudy 5 - - - -
01/06:00am 4.7 WSW 3 4 1023.2 - 0.2 - Mostly cloudy 10 - - - -
01/05:30am 4.5 SW 1 3 1023.4 - 0.2 - Partly cloudy 10 - - - -
01/05:00am 4.4 WNW 5 6 1023.7 - 0.2 - Partly cloudy 10 - - - -
01/04:30am 3.1 WSW 6 7 1023.9 - 0.0 - Partly cloudy 10 - - - -
01/04:06am 1.8 W 5 7 1024.0 - 0.0 - Partly cloudy 7 - - - -
01/04:00am 1.9 W 6 7 1024.0 - 0.0 - Partly cloudy 10 - - - -
01/03:30am 1.0 WSW 3 4 1024.2 - 0.0 - Partly cloudy 2 - - - -
01/03:00am 0.9 W 5 5 1024.5 - 0.0 - Mostly clear 2 - - - -
01/02:35am 1.7 W 4 5 1024.6 - 0.0 - - 5 - - - -
01/02:30am 1.5 WNW 4 5 1024.7 - 0.0 - - 7 - - - -
01/02:00am 2.3 W 4 5 1024.7 - 0.0 - Partly cloudy 9 - - - -
01/01:43am 2.0 WSW 3 4 1024.7 - 0.0 - Partly cloudy 8 - - - -
01/01:31am 2.1 WSW 4 5 1024.7 - 0.0 - Partly cloudy 5 - - - -
01/01:30am 2.0 WSW 4 5 1024.8 - 0.0 - Partly cloudy 6 - - - -
01/01:07am 1.8 WSW 4 5 1024.9 - 0.0 - Partly cloudy 6 - - - -
01/01:00am 1.5 WSW 4 5 1024.9 - 0.0 - Partly cloudy 7 - - - -
01/12:30am 1.9 WSW 4 5 1025.2 - 0.0 - Partly cloudy 2 - - - -
01/12:07am 1.9 WSW 5 6 1025.3 - 0.0 - Partly cloudy 5 - - - -
01/12:00am 2.7 WSW 5 6 1025.4 - 0.0 - - 6 - - - -
 
Date/Time
EST
Temp

°C
Wind Pressure Rain
since 9am
mm
Weather Cloud Vis
km
Sea
Height
m
Swell
Dir
 
Speed
knots
Gust
knots
hPa Trend Height
m
Period
s
Dir
30/11:56pm 1.4 WSW 5 6 1025.5 - 0.0 - - 7 - - - -
30/11:30pm 2.8 WSW 3 4 1025.5 - 0.0 - - 2 - - - -
30/11:00pm 4.0 CALM 0 0 1025.6 - 0.0 - - 0.8 - - - -
30/10:46pm 4.1 CALM 0 0 1025.6 - 0.0 - - 5 - - - -
30/10:32pm 4.0 CALM 0 0 1025.7 - 0.0 - - 10 - - - -
30/10:30pm 3.9 CALM 0 0 1025.7 - 0.0 - - 10 - - - -
30/10:00pm 3.7 WNW 3 4 1025.7 - 0.0 - - 5 - - - -
30/09:52pm 3.6 W 4 5 1025.8 - 0.0 - - 10 - - - -
30/09:40pm 3.3 WSW 5 6 1025.7 - 0.0 - - 5 - - - -
30/09:30pm 3.7 SW 4 5 1025.7 - 0.0 - - 10 - - - -
30/09:00pm 4.5 SSW 4 5 1025.6 - 0.0 - - 10 - - - -
30/08:30pm 5.0 SW 5 6 1025.4 - 0.0 - - 10 - - - -
30/08:00pm 5.6 WSW 9 9 1025.4 - 0.0 - - 10 - - - -
30/07:30pm 6.5 SW 7 9 1025.2 - 0.0 - - 10 - - - -
30/07:00pm 7.2 WSW 9 10 1025.3 - 0.0 - - 10 - - - -
30/06:30pm 7.5 WSW 6 8 1025.0 - 0.0 - - 10 - - - -
30/06:00pm 8.9 WSW 2 4 1024.9 - 0.0 - - 10 - - - -
30/05:30pm 9.9 WNW 9 12 1024.7 - 0.0 - - 10 - - - -
30/05:00pm 10.5 WNW 10 11 1024.4 - 0.0 - - 10 - - - -
30/04:30pm 11.5 WSW 7 9 1024.3 - 0.0 - - 10 - - - -
30/04:00pm 12.7 WSW 10 13 1024.1 - 0.0 - - 10 - - - -
30/03:30pm 13.1 WSW 8 10 1024.1 - 0.0 - - 10 - - - -
30/03:00pm 13.7 WSW 10 13 1024.0 - 0.0 - - 10 - - - -
30/02:30pm 13.3 WSW 12 15 1024.2 - 0.0 - - 10 - - - -
30/02:00pm 12.1 WSW 9 12 1024.5 - 0.0 - - 10 - - - -
30/01:30pm 13.0 WSW 11 16 1024.8 - 0.0 - Partly cloudy 10 - - - -
30/01:00pm 13.2 W 12 17 1024.9 - 0.0 - Partly cloudy 10 - - - -
30/12:30pm 13.1 WSW 12 18 1025.3 - 0.0 - Partly cloudy 10 - - - -
30/12:00pm 12.3 WSW 10 14 1025.6 - 0.0 - Mostly clear 10 - - - -
30/11:30am 11.6 WSW 11 16 1026.2 - 0.0 - - 10 - - - -
30/11:00am 11.2 WSW 13 18 1026.8 - 0.0 - Partly cloudy 10 - - - -
30/10:30am 10.1 WSW 7 10 1027.1 - 0.0 - Partly cloudy 10 - - - -
30/10:00am 9.2 WSW 9 12 1027.2 - 0.0 - Cloudy 10 - - - -
30/09:30am 6.8 CALM 0 0 1027.1 - 0.0 - Cloudy 10 - - - -
30/09:09am 5.7 CALM 0 0 1027.2 - 0.0 - Cloudy 10 - - - -
30/09:00am 5.2 CALM 0 0 1027.1 - 0.0 - Mostly cloudy 10 - - - -
30/08:30am 3.2 WSW 4 4 1026.9 - 0.0 - Cloudy 7 - - - -
30/08:20am 2.4 WSW 3 4 1026.8 - 0.0 - Partly cloudy 10 - - - -
30/08:10am 2.4 WSW 3 4 1026.8 - 0.0 - Partly cloudy 5 - - - -
30/08:05am 2.2 WSW 3 4 1026.7 - 0.0 - Partly cloudy 5 - - - -
30/08:00am 2.3 WSW 3 4 1026.7 - 0.0 - Partly cloudy 10 - - - -
30/07:30am 3.1 SSW 4 5 1026.6 - 0.0 - - 10 - - - -
30/07:22am 2.4 SW 4 5 1026.6 - 0.0 - Partly cloudy 10 - - - -
30/07:00am 2.7 SW 4 5 1026.6 - 0.0 - Partly cloudy 10 - - - -
30/06:30am 2.2 SW 3 4 1026.5 - 0.0 - Cloudy 10 - - - -
30/06:10am 2.5 SW 3 4 1026.2 - 0.0 - Partly cloudy 10 - - - -
30/06:00am 2.4 SW 3 3 1026.1 - 0.0 - Mostly clear 10 - - - -
30/05:30am 1.1 SW 3 3 1026.1 - 0.0 - - 10 - - - -
30/05:29am 1.1 SW 3 3 1026.1 - 0.0 - - 10 - - - -
30/05:10am 2.3 SSW 1 3 1026.0 - 0.0 - - 4 - - - -
30/05:07am 3.0 CALM 0 3 1026.0 - 0.0 - - 10 - - - -
30/05:00am 2.2 CALM 0 0 1026.0 - 0.0 - - 10 - - - -
30/04:43am 2.0 CALM 0 0 1026.0 - 0.0 - - 4 - - - -
30/04:30am 2.4 SSW 1 3 1026.0 - 0.0 - - 10 - - - -
30/04:00am 3.4 CALM 0 0 1026.2 - 0.0 - Partly cloudy 10 - - - -
30/03:57am 3.5 CALM 0 0 1026.2 - 0.0 - Partly cloudy 10 - - - -
30/03:30am 6.8 WSW 5 7 1026.5 - 0.0 - Partly cloudy 10 - - - -
30/03:00am 6.1 WSW 6 9 1026.9 - 0.0 - Partly cloudy 10 - - - -
30/02:56am 6.5 W 7 9 1026.9 - 0.0 - Partly cloudy 10 - - - -
30/02:30am 5.4 W 6 8 1026.8 - 0.0 - - 10 - - - -
30/02:00am 7.3 W 8 10 1026.8 - 0.0 - - 10 - - - -
30/01:30am 7.6 WSW 7 10 1026.8 - 0.0 - - 10 - - - -
30/01:21am 8.4 WSW 10 14 1026.9 - 0.0 - Partly cloudy 10 - - - -
30/01:00am 9.0 WSW 9 13 1027.0 - 0.0 - Partly cloudy 10 - - - -
30/12:54am 8.7 WSW 6 10 1027.1 - 0.0 - Partly cloudy 10 - - - -
30/12:30am 9.6 WSW 10 15 1027.3 - 0.0 - Cloudy 10 - - - -
30/12:00am 9.5 WSW 10 15 1027.5 - 0.0 - Mostly cloudy 10 - - - -
 
Date/Time
EST
Temp

°C
Wind Pressure Rain
since 9am
mm
Weather Cloud Vis
km
Sea
Height
m
Swell
Dir
 
Speed
knots
Gust
knots
hPa Trend Height
m
Period
s
Dir
29/11:32pm 9.6 WSW 12 16 1027.5 - 0.0 - Cloudy 10 - - - -
29/11:30pm 9.6 WSW 12 16 1027.5 - 0.0 - Cloudy 10 - - - -
29/11:00pm 9.5 WSW 10 13 1027.5 - 0.0 - Cloudy 10 - - - -
29/10:30pm 9.2 WSW 9 11 1027.6 - 0.0 - Cloudy 10 - - - -
29/10:00pm 9.6 WSW 10 13 1027.8 - 0.0 - Cloudy 10 - - - -
29/09:30pm 9.4 WSW 10 15 1027.9 - 0.0 - Cloudy 10 - - - -
29/09:00pm 8.1 WSW 6 9 1028.0 - 0.0 - Partly cloudy 10 - - - -
29/08:49pm 7.9 WSW 7 9 1028.0 - 0.0 - Partly cloudy 10 - - - -
29/08:30pm 8.3 WNW 6 8 1028.2 - 0.0 - Partly cloudy 10 - - - -
29/08:00pm 8.0 WSW 7 10 1028.1 - 0.0 - Partly cloudy 10 - - - -
29/07:56pm 8.1 WSW 8 10 1028.1 - 0.0 - Partly cloudy 10 - - - -
29/07:30pm 8.7 WSW 7 11 1028.2 - 0.0 - Partly cloudy 10 - - - -
29/07:28pm 8.8 WSW 7 11 1028.2 - 0.0 - Partly cloudy 10 - - - -
29/07:00pm 9.2 W 9 11 1028.3 - 0.0 - Partly cloudy 10 - - - -
29/06:30pm 9.1 W 7 9 1028.1 - 0.0 - Partly cloudy 10 - - - -
29/06:10pm 10.2 W 8 11 1028.0 - 0.0 - Partly cloudy 10 - - - -
29/06:00pm 10.5 W 10 14 1027.9 - 0.0 - Partly cloudy 10 - - - -
29/05:57pm 10.6 WSW 10 14 1027.9 - 0.0 - Partly cloudy 10 - - - -
29/05:30pm 10.7 W 11 15 1027.7 - 0.0 - Partly cloudy 10 - - - -
29/05:00pm 10.5 W 9 12 1027.7 - 0.0 - - 10 - - - -
29/04:30pm 12.1 W 10 14 1027.6 - 0.0 - - 10 - - - -
29/04:00pm 13.1 WSW 11 15 1027.7 - 0.0 - - 10 - - - -
29/03:30pm 13.9 WSW 14 18 1027.6 - 0.0 - - 10 - - - -
29/03:00pm 14.4 WSW 13 18 1027.4 - 0.0 - - 10 - - - -
29/02:30pm 14.7 WSW 12 18 1027.5 - 0.0 - - 10 - - - -
29/02:00pm 14.5 WSW 15 20 1027.7 - 0.0 - - 10 - - - -
29/01:30pm 14.7 W 13 17 1027.8 - 0.0 - Partly cloudy 10 - - - -
29/01:00pm 14.6 WSW 12 18 1028.1 - 0.0 - - 10 - - - -
29/12:30pm 14.1 WSW 11 15 1028.5 - 0.0 - Partly cloudy 10 - - - -
29/12:00pm 14.0 WSW 12 17 1028.8 - 0.0 - - 10 - - - -
29/11:30am 13.8 WSW 13 17 1029.2 - 0.0 - - 10 - - - -
29/11:00am 13.1 W 14 18 1029.5 - 0.0 - Partly cloudy 10 - - - -
29/10:48am 12.6 WSW 12 18 1029.6 - 0.0 - Partly cloudy 10 - - - -
29/10:30am 12.0 WSW 7 9 1029.7 - 0.0 - Partly cloudy 10 - - - -
29/10:00am 11.1 S 7 9 1029.8 - 0.0 - Cloudy 10 - - - -
29/09:40am 10.7 S 7 9 1029.9 - 0.0 - Partly cloudy 10 - - - -

Other Formats:

Comma delimited format used in spreadsheet applications
http://www.bom.gov.au/fwo/IDV60701/IDV60701.95957.axf

JavaScript Object Notation format (JSON) in row-major order
http://www.bom.gov.au/fwo/IDV60701/IDV60701.95957.json